Location: Grandview
(34.8900°N, 117.1058°W)
Time: 11:53:37
(UTC-08:00)

Vanguard 2 - Visible Passes

Search period start: 15 December 2017 00:00
Search period end: 25 December 2017 00:00
Orbit: 553 x 2939 km, 32.9° (Epoch: 14 December)

Date Brightness Start Highest point End Pass type
(mag) Time Alt. Az. Time Alt. Az. Time Alt. Az.
15 Dec 7.6 17:51:12 10° W 17:56:23 57° SSW 17:59:11 19° ESE visible
16 Dec 8.0 18:09:29 10° W 18:14:23 45° SSW 18:16:36 23° SE visible
17 Dec 8.5 18:27:50 10° W 18:32:18 33° SSW 18:34:04 23° SSE visible
18 Dec 9.0 18:46:23 10° W 18:50:08 22° SSW 18:51:37 19° S visible
19 Dec 9.5 19:05:22 10° WSW 19:07:55 14° SW 19:09:12 13° SSW visible
20 Dec 8.7 17:12:02 10° W 17:18:23 45° SSW 17:22:43 10° SE visible
21 Dec 9.2 17:30:29 10° W 17:36:14 33° SSW 17:40:20 10° SE visible
22 Dec 9.7 17:49:09 10° W 17:53:58 23° SW 17:57:38 10° SSE visible
23 Dec 10.0 18:08:17 10° WSW 18:11:36 15° SW 18:14:21 10° S visible
